CDG8812 ZUCK-ZSJN

Flight info

Callsign CDG8812
Flight time 1h 46m
Altitude 26600
Route OVNUL W677 IGIRO W4 WXI W59 UBSIS
Aircraft B738/M-SDE2E3FGHIRWXY/LB1

Departure

Time 2026-04-21 12:48
Airport Chongqing Jiangbei International Airport (ZUCK)

Arrival

Time 2026-04-21 14:35
Airport Jinan Yaoqiang International Airport (ZSJN)
Time Latitude Longitude Altitude Speed Heading
2026-04-21 12:20 29.71072 106.64676 1369 ft 0 kts 130°
2026-04-21 12:40 29.71081 106.64665 1369 ft 2 kts 130°
2026-04-21 12:40 29.71090 106.64651 1369 ft 2 kts 130°
2026-04-21 12:41 29.71100 106.64638 1369 ft 2 kts 130°
2026-04-21 12:41 29.71110 106.64625 1369 ft 2 kts 130°
2026-04-21 12:41 29.71120 106.64612 1369 ft 2 kts 130°
2026-04-21 12:41 29.71129 106.64598 1369 ft 2 kts 130°
2026-04-21 12:42 29.71140 106.64587 1369 ft 2 kts 161°
2026-04-21 12:42 29.71150 106.64585 1369 ft 0 kts 192°
2026-04-21 12:42 29.71157 106.64587 1369 ft 1 kts 195°
2026-04-21 12:42 29.71158 106.64587 1369 ft 0 kts 195°
2026-04-21 12:44 29.71157 106.64587 1369 ft 0 kts 195°
2026-04-21 12:44 29.71135 106.64583 1369 ft 7 kts 189°
2026-04-21 12:44 29.71057 106.64559 1369 ft 15 kts 197°
2026-04-21 12:44 29.70948 106.64521 1369 ft 18 kts 197°
2026-04-21 12:45 29.70816 106.64476 1369 ft 19 kts 197°
2026-04-21 12:45 29.70685 106.64431 1369 ft 19 kts 197°
2026-04-21 12:45 29.70560 106.64387 1369 ft 18 kts 196°
2026-04-21 12:45 29.70459 106.64352 1369 ft 9 kts 198°
2026-04-21 12:46 29.70422 106.64300 1369 ft 8 kts 271°
2026-04-21 12:46 29.70439 106.64233 1369 ft 9 kts 287°
2026-04-21 12:46 29.70461 106.64148 1369 ft 11 kts 287°
2026-04-21 12:46 29.70487 106.64078 1369 ft 7 kts 328°
2026-04-21 12:47 29.70536 106.64090 1369 ft 3 kts 16°
2026-04-21 12:47 29.70538 106.64091 1369 ft 0 kts 16°
2026-04-21 12:47 29.70575 106.64103 1369 ft 25 kts 16°
2026-04-21 12:47 29.70998 106.64249 1369 ft 96 kts 17°
2026-04-21 12:48 29.71843 106.64542 1369 ft 154 kts 17°
2026-04-21 12:48 29.72969 106.64944 1724 ft 172 kts 15°
2026-04-21 12:48 29.74113 106.65327 2442 ft 173 kts 14°
2026-04-21 12:48 29.75245 106.65687 3162 ft 168 kts 17°
2026-04-21 12:49 29.76363 106.66059 3533 ft 171 kts 17°
2026-04-21 12:49 29.77508 106.66453 3892 ft 174 kts 17°
2026-04-21 12:49 29.78681 106.66859 4243 ft 177 kts 17°
2026-04-21 12:49 29.79874 106.67270 4639 ft 183 kts 17°
2026-04-21 12:50 29.81132 106.67704 5020 ft 194 kts 17°
2026-04-21 12:50 29.82478 106.68170 5322 ft 212 kts 17°
2026-04-21 12:50 29.83943 106.68677 5725 ft 226 kts 17°
2026-04-21 12:50 29.85504 106.69218 6140 ft 241 kts 17°
2026-04-21 12:51 29.87171 106.69795 6584 ft 256 kts 17°
2026-04-21 12:51 29.88923 106.70403 7080 ft 267 kts 17°
2026-04-21 12:51 29.90725 106.71027 7658 ft 275 kts 16°
2026-04-21 12:51 29.92567 106.71664 8333 ft 278 kts 16°
2026-04-21 12:52 29.94426 106.72309 9032 ft 281 kts 16°
2026-04-21 12:52 29.96291 106.72956 9652 ft 285 kts 15°
2026-04-21 12:52 29.98210 106.73624 10279 ft 290 kts 15°
2026-04-21 12:52 30.00202 106.74317 10661 ft 304 kts 15°
2026-04-21 12:53 30.02280 106.75039 10985 ft 319 kts 15°
2026-04-21 12:53 30.04428 106.75785 11279 ft 334 kts 15°
2026-04-21 12:53 30.06704 106.76577 11600 ft 348 kts 15°
2026-04-21 12:53 30.09087 106.77409 11899 ft 362 kts 16°
2026-04-21 12:54 30.11513 106.78255 12337 ft 370 kts 15°
2026-04-21 12:54 30.14004 106.79111 12924 ft 374 kts 15°
2026-04-21 12:54 30.16526 106.79972 13522 ft 377 kts 15°
2026-04-21 12:54 30.19027 106.80835 14059 ft 382 kts 16°
2026-04-21 12:55 30.21561 106.81926 14606 ft 388 kts 21°
2026-04-21 12:55 30.23997 106.83252 15236 ft 391 kts 25°
2026-04-21 12:55 30.26425 106.84708 15787 ft 395 kts 26°
2026-04-21 12:55 30.28854 106.86212 16355 ft 399 kts 26°
2026-04-21 12:56 30.31280 106.87717 16900 ft 402 kts 26°
2026-04-21 12:56 30.33789 106.89258 17411 ft 407 kts 26°
2026-04-21 12:56 30.36273 106.90768 17971 ft 409 kts 26°
2026-04-21 12:56 30.38820 106.92302 18410 ft 415 kts 25°
2026-04-21 12:57 30.41401 106.93845 18839 ft 420 kts 25°
2026-04-21 12:57 30.44020 106.95405 19320 ft 424 kts 25°
2026-04-21 12:57 30.46662 106.96974 19826 ft 427 kts 25°
2026-04-21 12:57 30.49319 106.98551 20224 ft 433 kts 25°
2026-04-21 12:58 30.52012 107.00149 20720 ft 436 kts 25°
2026-04-21 12:58 30.54770 107.01791 21083 ft 443 kts 25°
2026-04-21 12:58 30.57483 107.03532 21501 ft 449 kts 29°
2026-04-21 12:58 30.60120 107.05496 21948 ft 453 kts 32°
2026-04-21 12:59 30.62725 107.07608 22320 ft 458 kts 34°
2026-04-21 12:59 30.65310 107.09787 22683 ft 464 kts 35°
2026-04-21 12:59 30.67890 107.11993 23144 ft 466 kts 35°
2026-04-21 12:59 30.70516 107.14245 23623 ft 468 kts 35°
2026-04-21 13:00 30.73156 107.16505 24013 ft 472 kts 34°
2026-04-21 13:00 30.75785 107.18745 24342 ft 477 kts 34°
2026-04-21 13:00 30.78486 107.21035 24883 ft 477 kts 34°
2026-04-21 13:00 30.81166 107.23300 25538 ft 474 kts 34°
2026-04-21 13:01 30.83837 107.25552 26142 ft 472 kts 33°
2026-04-21 13:01 30.86477 107.27774 26503 ft 473 kts 33°
2026-04-21 13:01 30.89148 107.30020 26522 ft 472 kts 33°
2026-04-21 13:01 30.91815 107.32262 26526 ft 469 kts 33°
2026-04-21 13:02 30.94471 107.34493 26524 ft 469 kts 33°
2026-04-21 13:02 30.97102 107.36704 26525 ft 469 kts 33°
2026-04-21 13:02 31.02400 107.41162 26525 ft 467 kts 33°
2026-04-21 13:03 31.05058 107.43333 26530 ft 468 kts 31°
2026-04-21 13:03 31.07820 107.45342 26534 ft 469 kts 27°
2026-04-21 13:03 31.10657 107.47230 26529 ft 465 kts 25°
2026-04-21 13:03 31.13507 107.49042 26529 ft 463 kts 25°
2026-04-21 13:04 31.16371 107.50833 26536 ft 466 kts 25°
2026-04-21 13:04 31.19204 107.52606 26540 ft 467 kts 25°
2026-04-21 13:04 31.22060 107.54404 26543 ft 465 kts 25°
2026-04-21 13:04 31.24919 107.56214 26538 ft 466 kts 25°
2026-04-21 13:05 31.27774 107.58034 26535 ft 466 kts 25°
2026-04-21 13:05 31.30590 107.59840 26542 ft 466 kts 26°
2026-04-21 13:05 31.33452 107.61685 26541 ft 465 kts 25°
2026-04-21 13:05 31.36274 107.63512 26541 ft 463 kts 26°
2026-04-21 13:06 31.39090 107.65339 26547 ft 464 kts 27°
2026-04-21 13:06 31.41911 107.67172 26546 ft 464 kts 27°
2026-04-21 13:06 31.44736 107.69009 26545 ft 464 kts 27°
2026-04-21 13:06 31.47554 107.70844 26541 ft 463 kts 26°
2026-04-21 13:07 31.50333 107.72657 26543 ft 463 kts 26°
2026-04-21 13:07 31.53182 107.74515 26546 ft 465 kts 26°
2026-04-21 13:07 31.56013 107.76362 26546 ft 465 kts 26°
2026-04-21 13:07 31.58803 107.78185 26550 ft 463 kts 26°
2026-04-21 13:08 31.61589 107.80060 26559 ft 462 kts 29°
2026-04-21 13:08 31.64272 107.82153 26562 ft 466 kts 33°
2026-04-21 13:08 31.66901 107.84470 26565 ft 466 kts 36°
2026-04-21 13:08 31.69416 107.86841 26565 ft 466 kts 37°
2026-04-21 13:09 31.71881 107.89239 26567 ft 466 kts 38°
2026-04-21 13:09 31.74376 107.91698 26575 ft 465 kts 38°
2026-04-21 13:09 31.76848 107.94140 26574 ft 468 kts 38°
2026-04-21 13:09 31.79355 107.96616 26579 ft 467 kts 38°
2026-04-21 13:10 31.81822 107.99043 26576 ft 465 kts 38°
2026-04-21 13:10 31.84307 108.01482 26593 ft 465 kts 38°
2026-04-21 13:10 31.86787 108.03911 26591 ft 464 kts 38°
2026-04-21 13:10 31.89282 108.06350 26587 ft 464 kts 38°
2026-04-21 13:11 31.91741 108.08751 26581 ft 465 kts 38°
2026-04-21 13:11 31.94258 108.11208 26577 ft 464 kts 37°
2026-04-21 13:11 31.96728 108.13619 26583 ft 462 kts 37°
2026-04-21 13:11 31.99208 108.16041 26592 ft 463 kts 37°
2026-04-21 13:12 32.01664 108.18438 26597 ft 464 kts 37°
2026-04-21 13:12 32.04165 108.20885 26597 ft 462 kts 37°
2026-04-21 13:12 32.06587 108.23312 26610 ft 465 kts 41°
2026-04-21 13:12 32.08812 108.26095 26612 ft 469 kts 51°
2026-04-21 13:13 32.10558 108.29385 26610 ft 470 kts 64°
2026-04-21 13:13 32.11818 108.32903 26616 ft 471 kts 69°
2026-04-21 13:13 32.12924 108.36522 26623 ft 470 kts 71°
2026-04-21 13:13 32.13958 108.40165 26624 ft 467 kts 71°
2026-04-21 13:14 32.14959 108.43792 26625 ft 471 kts 71°
2026-04-21 13:14 32.15971 108.47485 26635 ft 469 kts 71°
2026-04-21 13:14 32.16964 108.51093 26639 ft 469 kts 71°
2026-04-21 13:14 32.17989 108.54781 26639 ft 470 kts 71°
2026-04-21 13:15 32.19016 108.58449 26638 ft 470 kts 71°
2026-04-21 13:15 32.20052 108.62107 26631 ft 472 kts 70°
2026-04-21 13:15 32.21212 108.65692 26640 ft 469 kts 66°
2026-04-21 13:15 32.22789 108.69014 26642 ft 467 kts 52°
2026-04-21 13:16 32.24992 108.71813 26641 ft 466 kts 38°
2026-04-21 13:16 32.27610 108.74063 26650 ft 463 kts 31°
2026-04-21 13:16 32.30316 108.76082 26651 ft 461 kts 29°
2026-04-21 13:16 32.33043 108.78020 26656 ft 462 kts 27°
2026-04-21 13:17 32.35809 108.79951 26649 ft 460 kts 27°
2026-04-21 13:17 32.38582 108.81883 26661 ft 460 kts 28°
2026-04-21 13:17 32.41312 108.83793 26666 ft 461 kts 28°
2026-04-21 13:17 32.44097 108.85754 26669 ft 461 kts 28°
2026-04-21 13:18 32.46815 108.87679 26674 ft 462 kts 28°
2026-04-21 13:18 32.49596 108.89660 26671 ft 464 kts 28°
2026-04-21 13:18 32.52354 108.91633 26667 ft 461 kts 28°
2026-04-21 13:18 32.55071 108.93583 26671 ft 462 kts 28°
2026-04-21 13:19 32.57832 108.95567 26671 ft 463 kts 28°
2026-04-21 13:19 32.60570 108.97540 26677 ft 461 kts 28°
2026-04-21 13:19 32.63332 108.99531 26675 ft 462 kts 28°
2026-04-21 13:19 32.66063 109.01502 26675 ft 463 kts 28°
2026-04-21 13:20 32.68798 109.03478 26674 ft 461 kts 28°
2026-04-21 13:20 32.71569 109.05482 26673 ft 464 kts 28°
2026-04-21 13:20 32.74318 109.07471 26675 ft 462 kts 28°
2026-04-21 13:20 32.77048 109.09449 26673 ft 460 kts 28°
2026-04-21 13:21 32.79783 109.11432 26675 ft 461 kts 28°
2026-04-21 13:21 32.82529 109.13423 26669 ft 462 kts 28°
2026-04-21 13:21 32.85243 109.15392 26665 ft 460 kts 28°
2026-04-21 13:21 32.87983 109.17381 26658 ft 462 kts 28°
2026-04-21 13:22 32.90743 109.19386 26654 ft 461 kts 28°
2026-04-21 13:22 32.93485 109.21382 26645 ft 463 kts 27°
2026-04-21 13:22 32.96199 109.23357 26641 ft 462 kts 27°
2026-04-21 13:22 32.98937 109.25353 26641 ft 461 kts 27°
2026-04-21 13:23 33.01675 109.27348 26644 ft 460 kts 27°
2026-04-21 13:23 33.04425 109.29353 26641 ft 461 kts 27°
2026-04-21 13:23 33.07169 109.31355 26635 ft 462 kts 27°
2026-04-21 13:23 33.09891 109.33346 26640 ft 462 kts 27°
2026-04-21 13:24 33.12626 109.35346 26639 ft 462 kts 28°
2026-04-21 13:24 33.15355 109.37344 26636 ft 461 kts 27°
2026-04-21 13:24 33.18089 109.39348 26642 ft 459 kts 27°
2026-04-21 13:24 33.20806 109.41338 26645 ft 462 kts 27°
2026-04-21 13:25 33.23553 109.43353 26644 ft 461 kts 27°
2026-04-21 13:25 33.26278 109.45355 26646 ft 461 kts 27°
2026-04-21 13:25 33.29013 109.47364 26649 ft 462 kts 27°
2026-04-21 13:25 33.31750 109.49377 26649 ft 459 kts 27°
2026-04-21 13:26 33.34436 109.51384 26656 ft 459 kts 30°
2026-04-21 13:26 33.36994 109.53714 26652 ft 466 kts 39°
2026-04-21 13:26 33.39154 109.56597 26653 ft 470 kts 52°
2026-04-21 13:26 33.40778 109.60015 26667 ft 472 kts 64°
2026-04-21 13:27 33.41924 109.63706 26662 ft 476 kts 72°
2026-04-21 13:27 33.42708 109.67519 26656 ft 476 kts 79°
2026-04-21 13:27 33.43227 109.71420 26661 ft 477 kts 83°
2026-04-21 13:27 33.43606 109.75362 26659 ft 476 kts 84°
2026-04-21 13:28 33.43929 109.79297 26659 ft 476 kts 84°
2026-04-21 13:28 33.44242 109.83253 26660 ft 477 kts 84°
2026-04-21 13:28 33.44564 109.87180 26666 ft 476 kts 84°
2026-04-21 13:28 33.44898 109.91124 26673 ft 477 kts 84°
2026-04-21 13:29 33.45244 109.95074 26673 ft 479 kts 83°
2026-04-21 13:29 33.45596 109.98982 26664 ft 477 kts 84°
2026-04-21 13:29 33.45957 110.02923 26669 ft 475 kts 83°
2026-04-21 13:29 33.46319 110.06864 26668 ft 479 kts 84°
2026-04-21 13:30 33.46680 110.10778 26665 ft 476 kts 83°
2026-04-21 13:30 33.47045 110.14709 26670 ft 476 kts 83°
2026-04-21 13:30 33.47414 110.18640 26670 ft 477 kts 83°
2026-04-21 13:30 33.47788 110.22574 26664 ft 478 kts 83°
2026-04-21 13:31 33.48161 110.26518 26659 ft 478 kts 83°
2026-04-21 13:31 33.48534 110.30472 26668 ft 477 kts 83°
2026-04-21 13:31 33.48904 110.34436 26671 ft 476 kts 83°
2026-04-21 13:31 33.49287 110.38316 26666 ft 475 kts 81°
2026-04-21 13:32 33.49922 110.42209 26673 ft 477 kts 73°
2026-04-21 13:32 33.51133 110.45855 26672 ft 473 kts 59°
2026-04-21 13:32 33.52996 110.49073 26670 ft 470 kts 46°
2026-04-21 13:32 33.55332 110.51790 26672 ft 467 kts 36°
2026-04-21 13:33 33.57915 110.54113 26671 ft 462 kts 29°
2026-04-21 13:33 33.60678 110.56104 26661 ft 460 kts 24°
2026-04-21 13:33 33.63495 110.57822 26662 ft 460 kts 21°
2026-04-21 13:33 33.66408 110.59448 26656 ft 457 kts 19°
2026-04-21 13:34 33.69302 110.61012 26649 ft 458 kts 19°
2026-04-21 13:34 33.72213 110.62581 26655 ft 460 kts 19°
2026-04-21 13:34 33.75118 110.64162 26657 ft 459 kts 20°
2026-04-21 13:34 33.78014 110.65763 26658 ft 457 kts 20°
2026-04-21 13:35 33.80883 110.67369 26652 ft 456 kts 20°
2026-04-21 13:35 33.83782 110.69005 26658 ft 459 kts 21°
2026-04-21 13:35 33.86647 110.70633 26658 ft 460 kts 21°
2026-04-21 13:35 33.89553 110.72297 26665 ft 459 kts 21°
2026-04-21 13:36 33.92410 110.73942 26674 ft 455 kts 21°
2026-04-21 13:36 33.95289 110.75600 26685 ft 460 kts 21°
2026-04-21 13:36 33.98172 110.77261 26686 ft 461 kts 20°
2026-04-21 13:36 34.01029 110.78911 26691 ft 458 kts 21°
2026-04-21 13:37 34.03909 110.80576 26692 ft 460 kts 21°
2026-04-21 13:37 34.06810 110.82253 26691 ft 462 kts 21°
2026-04-21 13:37 34.09677 110.83915 26684 ft 459 kts 21°
2026-04-21 13:37 34.12575 110.85596 26684 ft 458 kts 21°
2026-04-21 13:38 34.15432 110.87254 26680 ft 462 kts 21°
2026-04-21 13:38 34.18335 110.88937 26668 ft 460 kts 21°
2026-04-21 13:38 34.21238 110.90621 26665 ft 462 kts 21°
2026-04-21 13:38 34.24094 110.92280 26663 ft 459 kts 20°
2026-04-21 13:39 34.26985 110.93961 26662 ft 462 kts 20°
2026-04-21 13:39 34.29895 110.95652 26661 ft 462 kts 21°
2026-04-21 13:39 34.32775 110.97330 26668 ft 458 kts 21°
2026-04-21 13:39 34.35646 110.99004 26666 ft 459 kts 20°
2026-04-21 13:40 34.38530 111.00702 26666 ft 462 kts 22°
2026-04-21 13:40 34.41323 111.02713 26666 ft 468 kts 31°
2026-04-21 13:40 34.43777 111.05309 26662 ft 476 kts 44°
2026-04-21 13:40 34.45821 111.08500 26670 ft 481 kts 52°
2026-04-21 13:41 34.47664 111.11891 26661 ft 480 kts 55°
2026-04-21 13:41 34.49413 111.15328 26655 ft 480 kts 56°
2026-04-21 13:41 34.51125 111.18785 26656 ft 482 kts 56°
2026-04-21 13:41 34.52840 111.22281 26650 ft 480 kts 56°
2026-04-21 13:42 34.54552 111.25764 26654 ft 480 kts 56°
2026-04-21 13:42 34.56252 111.29207 26656 ft 481 kts 56°
2026-04-21 13:42 34.57983 111.32694 26658 ft 480 kts 56°
2026-04-21 13:42 34.59710 111.36166 26659 ft 479 kts 56°
2026-04-21 13:43 34.61433 111.39613 26671 ft 483 kts 56°
2026-04-21 13:43 34.63175 111.43094 26675 ft 484 kts 56°
2026-04-21 13:43 34.64900 111.46539 26677 ft 482 kts 56°
2026-04-21 13:43 34.66643 111.50017 26672 ft 479 kts 56°
2026-04-21 13:44 34.68380 111.53481 26679 ft 480 kts 56°
2026-04-21 13:44 34.70113 111.56937 26678 ft 483 kts 55°
2026-04-21 13:44 34.71868 111.60438 26682 ft 482 kts 56°
2026-04-21 13:44 34.73588 111.63873 26682 ft 481 kts 55°
2026-04-21 13:45 34.75332 111.67358 26684 ft 484 kts 56°
2026-04-21 13:45 34.77074 111.70843 26674 ft 483 kts 56°
2026-04-21 13:45 34.78804 111.74309 26679 ft 480 kts 56°
2026-04-21 13:45 34.80540 111.77793 26682 ft 482 kts 56°
2026-04-21 13:46 34.82279 111.81287 26677 ft 483 kts 56°
2026-04-21 13:46 34.84005 111.84757 26678 ft 484 kts 56°
2026-04-21 13:46 34.85754 111.88277 26680 ft 484 kts 56°
2026-04-21 13:46 34.87469 111.91731 26674 ft 482 kts 56°
2026-04-21 13:47 34.89221 111.95248 26671 ft 483 kts 56°
2026-04-21 13:47 34.90957 111.98711 26668 ft 482 kts 56°
2026-04-21 13:47 34.92715 112.02206 26662 ft 481 kts 56°
2026-04-21 13:47 34.94449 112.05648 26663 ft 481 kts 55°
2026-04-21 13:48 34.96206 112.09138 26666 ft 481 kts 56°
2026-04-21 13:48 34.97933 112.12570 26662 ft 483 kts 55°
2026-04-21 13:48 34.99678 112.16047 26663 ft 482 kts 56°
2026-04-21 13:48 35.01422 112.19529 26669 ft 481 kts 55°
2026-04-21 13:49 35.03184 112.23049 26666 ft 482 kts 56°
2026-04-21 13:49 35.04916 112.26509 26669 ft 480 kts 54°
2026-04-21 13:49 35.06650 112.29971 26662 ft 484 kts 55°
2026-04-21 13:49 35.08415 112.33508 26668 ft 484 kts 55°
2026-04-21 13:50 35.10167 112.37024 26663 ft 484 kts 54°
2026-04-21 13:50 35.11908 112.40523 26659 ft 483 kts 55°
2026-04-21 13:50 35.13620 112.43977 26657 ft 482 kts 55°
2026-04-21 13:50 35.15375 112.47534 26663 ft 485 kts 55°
2026-04-21 13:51 35.17094 112.51019 26656 ft 485 kts 55°
2026-04-21 13:51 35.18850 112.54582 26654 ft 485 kts 55°
2026-04-21 13:51 35.20574 112.58073 26648 ft 486 kts 55°
2026-04-21 13:51 35.22319 112.61588 26654 ft 484 kts 54°
2026-04-21 13:52 35.24068 112.65078 26644 ft 485 kts 55°
2026-04-21 13:52 35.25834 112.68589 26641 ft 485 kts 54°
2026-04-21 13:52 35.27617 112.72124 26639 ft 486 kts 55°
2026-04-21 13:52 35.29370 112.75607 26634 ft 485 kts 54°
2026-04-21 13:53 35.31156 112.79147 26642 ft 484 kts 54°
2026-04-21 13:53 35.32903 112.82615 26648 ft 485 kts 55°
2026-04-21 13:53 35.34679 112.86145 26648 ft 486 kts 54°
2026-04-21 13:53 35.36426 112.89640 26645 ft 484 kts 54°
2026-04-21 13:54 35.38201 112.93188 26651 ft 487 kts 54°
2026-04-21 13:54 35.39951 112.96699 26656 ft 487 kts 54°
2026-04-21 13:54 35.41705 113.00234 26656 ft 484 kts 54°
2026-04-21 13:54 35.43461 113.03784 26656 ft 484 kts 54°
2026-04-21 13:55 35.45197 113.07301 26652 ft 487 kts 54°
2026-04-21 13:55 35.46964 113.10883 26651 ft 486 kts 54°
2026-04-21 13:55 35.48714 113.14421 26642 ft 488 kts 54°
2026-04-21 13:55 35.50462 113.17953 26630 ft 488 kts 54°
2026-04-21 13:56 35.52217 113.21504 26639 ft 485 kts 54°
2026-04-21 13:56 35.53983 113.25075 26637 ft 488 kts 53°
2026-04-21 13:56 35.55722 113.28594 26637 ft 485 kts 53°
2026-04-21 13:56 35.57472 113.32142 26639 ft 487 kts 54°
2026-04-21 13:57 35.59220 113.35693 26639 ft 487 kts 54°
2026-04-21 13:57 35.60961 113.39230 26642 ft 488 kts 54°
2026-04-21 13:57 35.62732 113.42810 26647 ft 487 kts 53°
2026-04-21 13:57 35.64502 113.46336 26642 ft 487 kts 53°
2026-04-21 13:58 35.66298 113.49881 26646 ft 489 kts 53°
2026-04-21 13:58 35.68082 113.53389 26644 ft 489 kts 52°
2026-04-21 13:58 35.69873 113.56915 26641 ft 488 kts 53°
2026-04-21 13:58 35.71676 113.60465 26642 ft 489 kts 53°
2026-04-21 13:59 35.73463 113.63995 26636 ft 488 kts 53°
2026-04-21 13:59 35.75252 113.67536 26639 ft 488 kts 54°
2026-04-21 13:59 35.77034 113.71071 26642 ft 485 kts 54°
2026-04-21 13:59 35.78819 113.74620 26640 ft 488 kts 54°
2026-04-21 14:00 35.80596 113.78156 26632 ft 488 kts 53°
2026-04-21 14:00 35.82368 113.81688 26634 ft 488 kts 54°
2026-04-21 14:00 35.84157 113.85256 26633 ft 488 kts 54°
2026-04-21 14:00 35.85933 113.88805 26630 ft 489 kts 54°
2026-04-21 14:01 35.87708 113.92357 26626 ft 488 kts 54°
2026-04-21 14:01 35.89503 113.95952 26633 ft 489 kts 54°
2026-04-21 14:01 35.91295 113.99540 26626 ft 491 kts 54°
2026-04-21 14:01 35.93075 114.03116 26629 ft 489 kts 54°
2026-04-21 14:02 35.94856 114.06698 26630 ft 490 kts 53°
2026-04-21 14:02 35.96610 114.10231 26640 ft 490 kts 54°
2026-04-21 14:02 35.98394 114.13826 26640 ft 493 kts 54°
2026-04-21 14:03 36.01948 114.21001 26653 ft 490 kts 54°
2026-04-21 14:03 36.03737 114.24612 26652 ft 491 kts 54°
2026-04-21 14:03 36.05527 114.28228 26648 ft 490 kts 54°
2026-04-21 14:03 36.07296 114.31800 26653 ft 494 kts 54°
2026-04-21 14:04 36.09090 114.35426 26653 ft 492 kts 54°
2026-04-21 14:04 36.10869 114.39032 26652 ft 489 kts 54°
2026-04-21 14:04 36.12638 114.42623 26649 ft 491 kts 54°
2026-04-21 14:04 36.14395 114.46189 26660 ft 492 kts 54°
2026-04-21 14:05 36.16173 114.49805 26664 ft 492 kts 54°
2026-04-21 14:05 36.17952 114.53428 26656 ft 493 kts 54°
2026-04-21 14:05 36.19732 114.57059 26662 ft 491 kts 54°
2026-04-21 14:05 36.21497 114.60664 26671 ft 490 kts 55°
2026-04-21 14:06 36.23260 114.64266 26664 ft 491 kts 55°
2026-04-21 14:06 36.25016 114.67856 26662 ft 491 kts 56°
2026-04-21 14:06 36.26775 114.71461 26659 ft 489 kts 55°
2026-04-21 14:06 36.28534 114.75071 26669 ft 489 kts 55°
2026-04-21 14:07 36.30274 114.78685 26665 ft 490 kts 56°
2026-04-21 14:07 36.32009 114.82335 26668 ft 493 kts 57°
2026-04-21 14:07 36.33730 114.85992 26666 ft 494 kts 57°
2026-04-21 14:07 36.35315 114.89776 26665 ft 496 kts 63°
2026-04-21 14:08 36.36624 114.93720 26670 ft 495 kts 68°
2026-04-21 14:08 36.37717 114.97704 26666 ft 496 kts 71°
2026-04-21 14:08 36.38712 115.01854 26683 ft 499 kts 73°
2026-04-21 14:08 36.39611 115.05931 26667 ft 498 kts 73°
2026-04-21 14:09 36.40492 115.10090 26672 ft 497 kts 74°
2026-04-21 14:09 36.41356 115.14228 26672 ft 498 kts 75°
2026-04-21 14:09 36.42223 115.18404 26676 ft 497 kts 74°
2026-04-21 14:09 36.43193 115.22469 26674 ft 494 kts 69°
2026-04-21 14:10 36.44399 115.26502 26673 ft 496 kts 66°
2026-04-21 14:10 36.45730 115.30425 26655 ft 494 kts 64°
2026-04-21 14:10 36.47134 115.34312 26436 ft 497 kts 63°
2026-04-21 14:10 36.48577 115.38215 26179 ft 493 kts 63°
2026-04-21 14:11 36.50012 115.42084 25924 ft 488 kts 62°
2026-04-21 14:11 36.51416 115.45885 25682 ft 490 kts 63°
2026-04-21 14:11 36.52829 115.49757 25435 ft 490 kts 63°
2026-04-21 14:11 36.54218 115.53594 25186 ft 489 kts 63°
2026-04-21 14:12 36.55590 115.57417 24935 ft 485 kts 63°
2026-04-21 14:12 36.56942 115.61211 24685 ft 480 kts 64°
2026-04-21 14:12 36.58282 115.64997 24441 ft 479 kts 64°
2026-04-21 14:12 36.59628 115.68814 24196 ft 478 kts 65°
2026-04-21 14:13 36.60948 115.72561 23968 ft 474 kts 65°
2026-04-21 14:13 36.62259 115.76291 23725 ft 471 kts 65°
2026-04-21 14:13 36.63566 115.80013 23492 ft 467 kts 65°
2026-04-21 14:13 36.64851 115.83678 23256 ft 464 kts 64°
2026-04-21 14:14 36.66133 115.87336 23020 ft 454 kts 64°
2026-04-21 14:14 36.67384 115.90914 22788 ft 443 kts 65°
2026-04-21 14:14 36.68597 115.94392 22558 ft 433 kts 65°
2026-04-21 14:14 36.69768 115.97752 22332 ft 425 kts 65°
2026-04-21 14:15 36.70940 116.01114 22101 ft 425 kts 65°
2026-04-21 14:15 36.72124 116.04511 21869 ft 427 kts 65°
2026-04-21 14:15 36.73307 116.07906 21642 ft 423 kts 65°
2026-04-21 14:15 36.74454 116.11205 21408 ft 416 kts 65°
2026-04-21 14:16 36.75586 116.14467 21170 ft 406 kts 65°
2026-04-21 14:16 36.76700 116.17680 20938 ft 397 kts 65°
2026-04-21 14:16 36.77780 116.20802 20710 ft 388 kts 65°
2026-04-21 14:16 36.78824 116.23842 20477 ft 380 kts 66°
2026-04-21 14:17 36.79705 116.26870 20245 ft 372 kts 72°
2026-04-21 14:17 36.80275 116.29969 20011 ft 364 kts 81°
2026-04-21 14:17 36.80554 116.33069 19783 ft 356 kts 86°
2026-04-21 14:17 36.80690 116.36146 19513 ft 351 kts 88°
2026-04-21 14:18 36.80776 116.39157 19114 ft 352 kts 89°
2026-04-21 14:18 36.80851 116.42192 18652 ft 353 kts 89°
2026-04-21 14:18 36.80931 116.45266 18144 ft 354 kts 88°
2026-04-21 14:18 36.81019 116.48350 17641 ft 355 kts 88°
2026-04-21 14:19 36.81113 116.51395 17131 ft 356 kts 87°
2026-04-21 14:19 36.81213 116.54469 16609 ft 357 kts 86°
2026-04-21 14:19 36.81316 116.57566 16064 ft 357 kts 86°
2026-04-21 14:19 36.81417 116.60637 15519 ft 357 kts 85°
2026-04-21 14:20 36.81519 116.63738 14976 ft 356 kts 85°
2026-04-21 14:20 36.81619 116.66818 14436 ft 354 kts 85°
2026-04-21 14:20 36.81716 116.69853 13892 ft 352 kts 85°
2026-04-21 14:20 36.81815 116.72865 13337 ft 350 kts 86°
2026-04-21 14:21 36.81912 116.75867 12801 ft 347 kts 86°
2026-04-21 14:21 36.82008 116.78868 12469 ft 338 kts 86°
2026-04-21 14:21 36.82096 116.81732 12328 ft 324 kts 85°
2026-04-21 14:21 36.82181 116.84463 12212 ft 311 kts 85°
2026-04-21 14:22 36.82267 116.87144 11906 ft 304 kts 85°
2026-04-21 14:22 36.82352 116.89750 11459 ft 297 kts 86°
2026-04-21 14:22 36.82427 116.92243 11294 ft 280 kts 86°
2026-04-21 14:22 36.82486 116.94622 11010 ft 276 kts 86°
2026-04-21 14:23 36.82545 116.97003 10662 ft 273 kts 85°
2026-04-21 14:23 36.82834 116.99332 10325 ft 269 kts 70°
2026-04-21 14:23 36.83773 117.01299 9985 ft 266 kts 46°
2026-04-21 14:23 36.85239 117.02638 9665 ft 265 kts 29°
2026-04-21 14:24 36.86953 117.03470 9313 ft 265 kts 15°
2026-04-21 14:24 36.88789 117.03689 8988 ft 265 kts
2026-04-21 14:24 36.90630 117.03617 8648 ft 265 kts 359°
2026-04-21 14:24 36.92478 117.03523 8311 ft 263 kts
2026-04-21 14:25 36.94296 117.03474 7976 ft 262 kts
2026-04-21 14:25 36.96108 117.03461 7639 ft 261 kts
2026-04-21 14:25 36.97915 117.03458 7303 ft 260 kts
2026-04-21 14:25 36.99720 117.03454 6973 ft 259 kts
2026-04-21 14:26 37.01518 117.03448 6637 ft 258 kts
2026-04-21 14:26 37.03315 117.03441 6308 ft 258 kts
2026-04-21 14:26 37.05110 117.03436 5986 ft 257 kts
2026-04-21 14:26 37.06879 117.03433 5746 ft 253 kts
2026-04-21 14:27 37.08637 117.03484 5485 ft 249 kts
2026-04-21 14:27 37.10296 117.04012 5217 ft 244 kts 31°
2026-04-21 14:27 37.11459 117.05419 4966 ft 234 kts 64°
2026-04-21 14:27 37.11894 117.07352 4717 ft 226 kts 90°
2026-04-21 14:28 37.11892 117.09316 4472 ft 224 kts 93°
2026-04-21 14:28 37.11887 117.11266 4216 ft 224 kts 91°
2026-04-21 14:28 37.11903 117.13200 3960 ft 223 kts 92°
2026-04-21 14:28 37.11913 117.15131 3702 ft 222 kts 92°
2026-04-21 14:29 37.11912 117.17057 3449 ft 221 kts 94°
2026-04-21 14:29 37.11729 117.18941 3204 ft 214 kts 111°
2026-04-21 14:29 37.10939 117.20443 2998 ft 203 kts 144°
2026-04-21 14:29 37.09726 117.21201 2991 ft 198 kts 166°
2026-04-21 14:30 37.08347 117.21500 2987 ft 199 kts 175°
2026-04-21 14:30 37.06974 117.21584 2986 ft 196 kts 180°
2026-04-21 14:30 37.05602 117.21594 3000 ft 191 kts 180°
2026-04-21 14:30 37.04316 117.21596 2984 ft 178 kts 180°
2026-04-21 14:31 37.03108 117.21598 2992 ft 174 kts 181°
2026-04-21 14:31 37.01866 117.21597 2960 ft 178 kts 180°
2026-04-21 14:31 37.00630 117.21595 2747 ft 174 kts 180°
2026-04-21 14:31 36.99471 117.21598 2529 ft 160 kts 181°
2026-04-21 14:32 36.98407 117.21599 2289 ft 148 kts 181°
2026-04-21 14:32 36.97391 117.21600 2106 ft 146 kts 181°
2026-04-21 14:32 36.96356 117.21596 1891 ft 145 kts 182°
2026-04-21 14:32 36.95358 117.21600 1699 ft 145 kts 182°
2026-04-21 14:33 36.94342 117.21597 1488 ft 144 kts 182°
2026-04-21 14:33 36.93328 117.21601 1292 ft 146 kts 182°
2026-04-21 14:33 36.92298 117.21600 1090 ft 146 kts 182°
2026-04-21 14:33 36.91283 117.21596 896 ft 147 kts 182°
2026-04-21 14:34 36.90256 117.21600 691 ft 150 kts 182°
2026-04-21 14:34 36.89201 117.21590 488 ft 151 kts 182°
2026-04-21 14:34 36.88141 117.21596 279 ft 151 kts 181°
2026-04-21 14:34 36.87104 117.21604 91 ft 149 kts 181°
2026-04-21 14:35 36.86165 117.21600 83 ft 103 kts 180°
2026-04-21 14:35 36.85680 117.21600 83 ft 46 kts 180°
2026-04-21 14:35 36.85398 117.21598 83 ft 28 kts 179°
2026-04-21 14:35 36.85262 117.21593 83 ft 14 kts 188°
2026-04-21 14:36 36.85188 117.21573 83 ft 7 kts 194°
2026-04-21 14:36 36.85148 117.21558 83 ft 9 kts 198°
2026-04-21 14:36 36.85086 117.21523 83 ft 9 kts 210°
2026-04-21 14:36 36.85027 117.21481 83 ft 10 kts 208°
2026-04-21 14:37 36.84958 117.21433 83 ft 12 kts 210°
2026-04-21 14:37 36.84889 117.21377 83 ft 11 kts 218°
2026-04-21 14:37 36.84862 117.21292 83 ft 10 kts 283°
2026-04-21 14:37 36.84891 117.21207 83 ft 10 kts 294°
2026-04-21 14:38 36.84924 117.21117 83 ft 12 kts 294°
2026-04-21 14:38 36.84936 117.21038 83 ft 6 kts 242°
2026-04-21 14:38 36.84915 117.20985 83 ft 6 kts 246°
2026-04-21 14:38 36.84906 117.20931 83 ft 6 kts 277°
2026-04-21 14:39 36.84918 117.20882 83 ft 3 kts 290°
2026-04-21 14:39 36.84925 117.20860 83 ft 0 kts 290°
2026-04-21 14:39 36.84925 117.20859 83 ft 0 kts 290°